Regional Weather Roundup
Issued by NWS Newport/Morehead, NC

Current Version | Previous Version | Graphics & Text | Print | Product List | Glossary Off
Versions: 1 2 3 4 5 6 7 8 9 10 11 12 13 14 15 16 17 18 19 20 21 22 23 24 25 26 27 28 29 30 31 32 33 34 35 36 37 38 39 40 41 42 43 44 45 46 47 48 49 50

000
ASUS42 KMHX 272225
RWRMHX
WEATHER ROUNDUP FOR EASTERN NORTH CAROLINA
NATIONAL WEATHER SERVICE NEWPORT/MOREHEAD CITY NC
600 PM EDT THU AUG 27 2015

NOTE: "FAIR" INDICATES FEW OR NO CLOUDS BELOW 12,000 FEET
WITH NO SIGNIFICANT WEATHER AND/OR OBSTRUCTIONS TO VISIBILITY

NCZ015>017-031-032-045>047-102-103-272300-
NORTH COAST

CITY           SKY/WX    TMP DP  RH WIND       PRES   REMARKS
EDENTON        CLOUDY    74  65  73 NE3       30.07S
ELIZABETH CITY CLOUDY    76  64  66 N10       30.06S
KITTY HAWK     CLOUDY    77  61  59 NE7G16    30.04S
MANTEO         CLOUDY    76  63  64 NE10      30.05S

$$

NCZ045>047-081-094-103-104-272300-
CENTRAL COAST

CITY           SKY/WX    TMP DP  RH WIND       PRES   REMARKS
FRISCO         LGT RAIN  72  70  93 E10       30.03R
SWANQUARTER    NOT AVBL

$$

NCZ095-097-098-100-101-272300-
SOUTHERN COAST

CITY           SKY/WX    TMP DP  RH WIND       PRES   REMARKS
BEAUFORT       HVY RAIN  73  73 100 N8        30.02R FOG
CEDAR ISLAND   NOT AVBL
JACKSONVILLE   CLOUDY    78  69  73 NE9       30.02R
PINEY ISLAND   CLOUDY   N/A N/A N/A NE17G25   30.02R
WILMINGTON     PTSUNNY   79  72  79 NE10      30.01S


$$

NCZ011>013-027>030-043-044-078>080-089-090>093-098-272300-
COASTAL PLAIN

CITY           SKY/WX    TMP DP  RH WIND       PRES   REMARKS
AHOSKIE        FAIR      75  61  60 CALM      30.08S
CLINTON        CLOUDY    76  66  71 NE5       30.05S
ELIZABETHTOWN  CLOUDY    77  68  75 CALM      30.04R
GOLDSBORO      CLOUDY    76  67  72 NE9       30.04S
GREENVILLE     CLOUDY    77  68  73 NE6       30.08R
HAVELOCK       CLOUDY    77  69  76 NE15      30.04R
KENANSVILLE      N/A     74  64  69 N5        30.05S
KINSTON        PTSUNNY   77  64  65 NE10      30.06S
NEW BERN       CLOUDY    77  66  68 NE14G23   30.05R
RICHLANDS      CLOUDY    77  66  69 N12       30.03S
ROCKY MOUNT    PTSUNNY   80  62  54 NE7       30.07S
WASHINGTON     PTSUNNY   73  67  80 NE6       30.06S
WHITEVILLE     CLOUDY    76  71  83 NE3       30.02R

$$

AMZ130-135-150-152-154-156-158-170-250-252-270-ANZ085-086-088-633-658-670-272300-
MARINE OBSERVATIONS

STATION/POSITION TIME  TEMP    WIND        PRES    WAVE   SWELL
                       AIR SEA DIR/SP/G            HT/PER HT/PER
                 (UTC) (F)     (DEG/KT/KT) (MB)    (FT/S) (FT/S)
CHESAPEAKE LIGHT 2200   75      50/ 10/ 11 1018.9
64 E VA BEACH    2150   77 80   30/ 14/ 16 1017.2    4/10   3/10
DUCK             2200   76 78   30/ 16/ 18 1016.9
2 E DUCK         2111      78                N/A     5/ 5   2/11
OREGON INLET     2200   77 79   30/ 12/ 17 1017.0
13E OREGON INLT  2200      79                N/A     5/ 6   2/11
HATTERAS CG      2200   73 81   70/  9/ 14 1016.3
DIAMOND BUOY     2150   78 82   70/ 10/ 12 1016.3    5/ 9   5/ 9
CAPE LOOKOUT     2200   78      40/ 18/ 23 1015.9
BEAUFORT LAB     2200   73 81   70/  8/ 19 1016.0
30 SE NEW RVR IN 2108   81 82   60/ 12/ 17 1015.3
30 SE NEW RVR IN 2125      82                N/A     4/ 4   2/12
27 SE WRIGHTSVLE 2200   78 82   70/ 16/ 17   N/A
5 SE WRIGHTSVLE  2108   80 83   40/ 16/ 19 1015.3
225 S CAPE HAT   2150   80 84  150/  8/ 10 1015.5    3/ 9   3/ 9
41 SE CHARLESTON 2150   82 85  310/  4/  6 1014.7    2/10   2/10

$$


USA.gov is the U.S. government's official web portal to all federal, state and local government web resources and services.